DateTimeUTC,F1_A11,F1_S11,BsB_S11,BsG_S11,BsR_S11,BbsB_S11,BbsG_S11,BbsR_S11,BaB_A11,BaG_A11,BaR_A11,T_S11,U_S11,P_S11,T1_A11
2020-04-06T00:00:00Z,00000388,21000608,,,,,,,,,,22.9,00.0,0638.6,30.8
2020-04-06T00:01:00Z,00000388,21000608,,,,,,,,,,23.0,00.0,0638.6,30.8
2020-04-06T00:02:00Z,00000388,21000608,,,,,,,,,,23.0,00.0,0638.7,30.8
2020-04-06T00:03:00Z,00000388,61000608,,,,,,,,,,23.0,00.0,0638.7,30.8
2020-04-06T00:04:00Z,00000388,41000608,0005.02,0002.32,0001.42,0001.55,0000.36,0000.68,0000.14,0000.09,0000.37,22.8,00.0,0639.5,30.8
2020-04-06T00:05:00Z,00000388,01000608,0004.28,0002.71,0001.87,0000.68,0000.42,0000.47,0000.34,0000.30,0000.16,22.8,00.0,0639.6,30.8
2020-04-06T00:06:00Z,00000388,01000608,0004.08,0002.58,0001.33,-000.14,0000.21,0000.33,0000.23,0000.40,0000.21,22.8,00.0,0639.6,30.8
2020-04-06T00:07:00Z,00000388,01000608,0004.60,0002.63,0001.71,0000.20,0000.22,0001.11,0000.34,0000.23,0000.11,22.7,00.0,0639.6,30.8
2020-04-06T00:08:00Z,00000388,01000608,0004.55,0002.42,0001.44,0000.85,0000.56,0000.68,0000.27,0000.25,0000.31,22.7,00.0,0639.5,30.8
2020-04-06T00:09:00Z,00000388,01000608,0005.04,0002.49,0001.27,0000.36,0000.41,0000.64,0000.47,0000.49,0000.20,22.7,00.0,0639.5,30.8
2020-04-06T00:10:00Z,00000388,01000608,0004.40,0002.04,0001.77,0000.79,0000.20,0000.39,0000.50,0000.35,0000.20,22.7,00.0,0639.4,30.8
2020-04-06T00:11:00Z,00000388,01000608,0004.23,0002.04,0001.34,0000.84,0000.15,0000.25,0000.44,0000.34,0000.39,22.7,00.0,0639.4,30.8
2020-04-06T00:12:00Z,00000388,01000608,0005.29,0002.89,0001.59,0001.40,0000.80,0000.71,0000.28,0000.45,0000.39,22.6,00.0,0639.4,30.8
2020-04-06T00:13:00Z,00000388,01000608,0004.56,0002.28,0001.12,0001.10,0000.36,0000.52,0000.51,0000.38,0000.15,22.7,00.0,0639.4,30.8
2020-04-06T00:14:00Z,00000388,01000608,0005.05,0002.02,0001.05,0000.57,0000.46,0000.43,0000.19,0000.37,0000.43,22.7,00.0,0639.3,30.8
2020-04-06T00:15:00Z,00000388,01000608,0005.17,0001.95,0001.49,0001.23,0000.06,0000.65,0000.50,0000.38,0000.21,22.7,00.0,0639.3,30.8
2020-04-06T00:16:00Z,00000388,01000608,0003.80,0002.26,0001.57,0000.68,0000.07,0000.28,0000.52,0000.45,0000.40,22.7,00.0,0639.3,30.8
2020-04-06T00:17:00Z,00000388,01000608,0005.29,0001.69,0001.16,0001.11,0000.09,0000.04,0000.28,0000.27,0000.21,22.7,00.0,0639.3,30.8
2020-04-06T00:18:00Z,00000388,01000608,0003.41,0002.58,0000.96,-000.14,0000.51,0000.47,0000.23,0000.39,0000.34,22.7,00.0,0639.4,30.8
2020-04-06T00:19:00Z,00000388,01000608,0004.97,0001.86,0001.29,0000.78,0000.06,0000.94,0000.36,0000.35,0000.05,22.7,00.0,0639.4,30.8
2020-04-06T00:20:00Z,00000388,01000608,0005.26,0001.97,0001.47,0002.08,0000.39,0000.30,0000.42,0000.20,0000.23,22.7,00.0,0639.4,30.8
2020-04-06T00:21:00Z,00000388,01000608,0004.21,0002.39,0001.40,0001.13,0000.39,0000.44,0000.15,0000.21,0000.26,22.7,00.0,0639.4,30.8
2020-04-06T00:22:00Z,00000388,01000608,0005.44,0002.48,0001.54,0001.16,0000.23,0000.39,0000.29,0000.35,0000.25,22.7,00.0,0639.4,30.8
2020-04-06T00:23:00Z,00000388,01000608,0004.83,0002.23,0001.33,0000.85,-000.15,0000.38,0000.44,0000.22,0000.38,22.6,00.0,0639.3,30.8
2020-04-06T00:24:00Z,00000388,01000608,0004.65,0002.43,0001.59,0000.56,0000.52,0000.30,0000.45,0000.51,0000.20,22.6,00.0,0639.3,30.8
2020-04-06T00:25:00Z,00000388,01000608,0004.93,0002.60,0001.60,0000.71,0000.23,0000.85,0000.32,0000.41,0000.31,22.6,00.0,0639.3,30.8
2020-04-06T00:26:00Z,00000388,01000608,0004.54,0002.56,0001.23,0000.77,0000.61,-000.08,0000.45,0000.34,0000.14,22.6,00.0,0639.2,30.8
2020-04-06T00:27:00Z,00000388,01000608,0004.85,0001.99,0001.51,0000.32,0000.40,0000.50,0000.50,0000.52,0000.35,22.6,00.0,0639.3,30.8
2020-04-06T00:28:00Z,00000388,01000608,0005.07,0002.73,0001.20,0000.76,0000.13,0000.68,0000.23,0000.25,0000.16,22.6,00.0,0639.3,30.8
2020-04-06T00:29:00Z,00000388,01000608,0004.27,0002.68,0001.09,0000.56,0000.45,0000.63,0000.53,0000.22,0000.24,22.6,00.0,0639.3,30.8
2020-04-06T00:30:00Z,00000388,01000608,0005.05,0002.49,0000.90,0000.51,0000.46,0000.43,0000.30,0000.46,0000.32,22.6,00.0,0639.3,30.8
2020-04-06T00:31:00Z,00000388,01000608,0004.24,0002.17,0001.31,0000.42,0000.53,-000.11,0000.36,0000.30,0000.30,22.7,00.0,0639.4,30.8
2020-04-06T00:32:00Z,00000388,01000608,0003.50,0002.89,0001.43,0000.05,-000.04,0000.66,0000.21,0000.33,0000.18,22.7,00.0,0639.4,30.8
2020-04-06T00:33:00Z,00000388,01000608,0003.66,0002.40,0001.30,0000.79,0000.33,0000.40,0000.32,0000.15,0000.14,22.7,00.0,0639.4,30.8
2020-04-06T00:34:00Z,00000388,01000608,0005.41,0002.85,0001.22,0001.17,0000.81,0000.11,0000.29,0000.38,0000.30,22.7,00.0,0639.4,30.8
2020-04-06T00:35:00Z,00000388,01000608,0004.23,0003.03,0001.42,0000.51,0000.21,0000.28,0000.21,0000.29,0000.24,22.7,00.0,0639.3,30.8
2020-04-06T00:36:00Z,00000388,01000608,0004.84,0002.91,0002.26,0000.50,0000.06,0000.98,0000.34,0000.31,0000.41,22.7,00.0,0639.2,30.8
2020-04-06T00:37:00Z,00000388,01000608,0005.56,0002.53,0001.15,0000.34,0000.31,0000.63,0000.45,0000.28,0000.01,22.6,00.0,0639.2,30.8
2020-04-06T00:38:00Z,00000388,01000608,0005.08,0002.44,0001.62,0000.74,0000.20,0000.46,0000.34,0000.44,0000.39,22.6,00.0,0639.1,30.8
2020-04-06T00:39:00Z,00000388,01000608,0004.94,0001.83,0001.44,0000.84,-000.15,0000.53,0000.39,0000.19,0000.16,22.6,00.0,0639.2,30.8
2020-04-06T00:40:00Z,00000388,01000608,0004.03,0002.62,0001.27,0001.01,0000.40,0000.07,0000.38,0000.34,0000.38,22.6,00.0,0639.1,30.8
2020-04-06T00:41:00Z,00000388,01000608,0005.78,0002.54,0000.81,0000.35,0000.03,0000.39,0000.50,0000.42,0000.27,22.6,00.0,0639.2,30.8
2020-04-06T00:42:00Z,00000388,01000608,0005.23,0002.27,0001.28,0000.59,0000.40,0000.49,0000.20,0000.47,0000.13,22.6,00.0,0639.2,30.8
2020-04-06T00:43:00Z,00000388,01000608,0003.81,0001.68,0001.00,-000.26,0000.39,0000.18,0000.35,0000.27,0000.23,22.6,00.0,0639.2,30.8
2020-04-06T00:44:00Z,00000388,01000608,0004.59,0002.49,0000.79,0000.68,0000.48,0000.11,0000.34,0000.27,0000.29,22.6,00.0,0639.3,30.8
2020-04-06T00:45:00Z,00000388,01000608,0005.58,0002.52,0001.64,0000.65,0000.93,0000.33,0000.36,0000.32,0000.23,22.6,00.0,0639.3,30.8
2020-04-06T00:46:00Z,00000388,01000608,0004.53,0002.47,0001.84,0000.89,0000.33,0000.67,0000.25,0000.21,0000.20,22.6,00.0,0639.3,30.8
2020-04-06T00:47:00Z,00000388,01000608,0004.47,0002.71,0001.09,0000.20,0000.53,0000.50,0000.28,0000.16,0000.20,22.6,00.0,0639.3,30.8
2020-04-06T00:48:00Z,00000388,01000608,0004.30,0002.20,0001.69,0000.43,0000.13,0000.10,0000.29,0000.45,0000.25,22.7,00.0,0639.3,30.8
2020-04-06T00:49:00Z,00000388,01000608,0004.37,0001.90,0001.32,0000.77,0000.48,0000.70,0000.26,0000.13,0000.12,22.7,00.0,0639.3,30.8
2020-04-06T00:50:00Z,00000388,01000608,0004.17,0002.57,0001.16,0000.49,0000.33,0000.71,0000.13,0000.35,0000.28,22.6,00.0,0639.3,30.8
2020-04-06T00:51:00Z,00000388,01000608,0004.77,0002.19,0001.25,0001.23,0000.52,0000.49,0000.45,0000.30,0000.17,22.6,00.0,0639.3,30.8
2020-04-06T00:52:00Z,00000388,01000608,0004.45,0002.38,0000.99,0001.71,0000.73,0000.61,0000.30,0000.26,0000.23,22.6,00.0,0639.2,30.8
2020-04-06T00:53:00Z,00000388,01000608,0003.17,0001.91,0001.30,0000.40,0000.48,0000.40,0000.32,0000.39,0000.20,22.6,00.0,0639.2,30.8
2020-04-06T00:54:00Z,00000388,01000608,0003.57,0002.25,0001.47,0001.32,0000.30,0000.46,0000.25,0000.29,0000.30,22.5,00.0,0639.2,30.8
2020-04-06T00:55:00Z,00000388,01000608,0004.19,0002.20,0001.74,0000.14,0000.26,0000.51,0000.55,0000.38,0000.22,22.5,00.0,0639.2,30.8
2020-04-06T00:56:00Z,00000388,01000608,0005.76,0002.91,0001.50,0000.62,0000.40,0000.80,0000.28,0000.30,0000.17,22.5,00.0,0639.2,30.8
2020-04-06T00:57:00Z,00000388,41000608,,,,,,,,,,22.6,00.0,0639.3,30.8
2020-04-06T00:58:00Z,00000388,61000608,,,,,,,,,,22.7,00.0,0638.4,30.8
2020-04-06T00:59:00Z,00000388,21000608,,,,,,,,,,22.8,00.0,0638.4,30.8
2020-04-06T01:00:00Z,00000388,21000608,,,,,,,,,,22.8,00.0,0638.4,30.8
2020-04-06T01:01:00Z,00000388,21000608,,,,,,,,,,22.8,00.0,0638.4,30.8
2020-04-06T01:02:00Z,00000388,21000608,,,,,,,,,,22.9,00.0,0638.4,30.8
2020-04-06T01:03:00Z,00000388,61000608,,,,,,,,,,22.9,00.0,0638.4,30.8
2020-04-06T01:04:00Z,00000388,41000608,0003.88,0002.50,0001.44,0000.83,0000.26,-000.09,0000.48,0000.32,0000.31,22.8,00.0,0639.2,30.8
2020-04-06T01:05:00Z,00000388,01000608,0004.31,0002.55,0001.40,0000.99,0000.80,0000.42,0000.16,0000.40,0000.26,22.7,00.0,0639.3,30.8
2020-04-06T01:06:00Z,00000388,01000608,0004.69,0002.86,0001.00,0001.26,0000.84,0000.29,0000.46,0000.30,0000.15,22.7,00.0,0639.2,30.8
2020-04-06T01:07:00Z,00000388,01000608,0003.64,0002.65,0000.99,0000.80,0000.66,0000.40,0000.38,0000.51,0000.32,22.7,00.0,0639.2,30.8
2020-04-06T01:08:00Z,00000388,01000608,0002.70,0002.23,0000.68,0000.29,0000.71,0000.40,0000.37,0000.31,0000.41,22.7,00.0,0639.1,30.8
2020-04-06T01:09:00Z,00000388,01000608,0003.68,0002.82,0000.69,0000.71,0000.58,0000.56,0000.24,0000.28,0000.16,22.6,00.0,0639.1,30.8
2020-04-06T01:10:00Z,00000388,01000608,0004.20,0002.22,0000.82,0001.01,0000.53,0000.37,0000.56,0000.47,0000.34,22.6,00.0,0639.1,30.8
2020-04-06T01:11:00Z,00000388,01000608,0003.97,0002.72,0001.06,0000.53,0000.28,0000.32,0000.42,0000.20,0000.29,22.6,00.0,0639.1,30.8
2020-04-06T01:12:00Z,00000388,01000608,0006.01,0003.45,0000.98,0000.92,0000.62,0000.10,0000.38,0000.45,0000.20,22.6,00.0,0639.1,30.8
2020-04-06T01:13:00Z,00000388,01000608,0005.07,0002.71,0001.27,0001.59,0000.27,0000.22,0000.26,0000.33,0000.29,22.6,00.0,0639.2,30.8
2020-04-06T01:14:00Z,00000388,01000608,0005.99,0002.51,0001.34,0000.61,0000.62,0000.35,0000.55,0000.33,0000.25,22.6,00.0,0639.2,30.8
2020-04-06T01:15:00Z,00000388,01000608,0004.58,0002.73,0001.03,0000.04,0000.78,0000.59,0000.38,0000.37,0000.29,22.6,00.0,0639.2,30.8
2020-04-06T01:16:00Z,00000388,01000608,0004.96,0002.72,0001.34,0001.04,0000.21,0000.45,0000.33,0000.30,0000.17,22.6,00.0,0639.2,30.8
2020-04-06T01:17:00Z,00000388,01000608,0003.98,0003.11,0000.83,0000.76,0000.71,0000.69,0000.30,0000.31,0000.26,22.7,00.0,0639.2,30.8
2020-04-06T01:18:00Z,00000388,01000608,0004.76,0003.21,0001.06,0000.01,0000.24,0000.33,0000.24,0000.39,0000.29,22.7,00.0,0639.1,30.8
2020-04-06T01:19:00Z,00000388,01000608,0004.91,0002.96,0001.19,0000.93,0000.59,0000.50,0000.47,0000.34,0000.21,22.7,00.0,0639.1,30.8
2020-04-06T01:20:00Z,00000388,01000608,0004.09,0002.52,0001.02,0000.65,0000.30,0000.40,0000.26,0000.18,0000.35,22.7,00.0,0639.1,30.8
2020-04-06T01:21:00Z,00000388,01000608,0004.33,0003.22,0001.22,-000.13,0000.09,0000.38,0000.34,0000.24,0000.06,22.7,00.0,0639.0,30.8
2020-04-06T01:22:00Z,00000388,01000608,0003.93,0002.59,0000.78,0000.52,0000.29,0000.22,0000.47,0000.36,0000.44,22.6,00.0,0638.9,30.8
2020-04-06T01:23:00Z,00000388,01000608,0004.97,0002.56,0001.06,0000.78,0000.76,0000.45,0000.17,0000.28,0000.20,22.6,00.0,0638.9,30.8
2020-04-06T01:24:00Z,00000388,01000608,0003.77,0002.55,0001.08,0001.19,0000.86,0000.38,0000.37,0000.40,0000.17,22.6,00.0,0638.9,30.8
2020-04-06T01:25:00Z,00000388,01000608,0005.71,0003.10,0001.19,0000.00,0000.18,0000.01,0000.57,0000.55,0000.34,22.5,00.0,0638.9,30.8
2020-04-06T01:26:00Z,00000388,01000608,0005.46,0002.74,0000.58,0000.07,0000.10,0000.53,0000.59,0000.38,0000.37,22.5,00.0,0638.9,30.8
2020-04-06T01:27:00Z,00000388,01000608,0002.60,0002.09,0001.21,0001.08,0000.52,0000.60,0000.27,0000.40,0000.26,22.5,00.0,0638.9,30.8
2020-04-06T01:28:00Z,00000388,01000608,0004.28,0002.89,0001.03,0000.79,0000.63,0000.56,0000.36,0000.20,0000.25,22.5,00.0,0638.9,30.8
2020-04-06T01:29:00Z,00000388,01000608,0003.67,0003.01,0001.29,0001.41,0000.84,0000.58,0000.38,0000.45,0000.28,22.5,00.0,0638.9,30.8
2020-04-06T01:30:00Z,00000388,01000608,0005.61,0002.94,0001.34,-000.04,0000.47,0000.42,0000.43,0000.19,0000.23,22.5,00.0,0638.9,30.8
2020-04-06T01:31:00Z,00000388,01000608,0005.12,0002.35,0000.73,0000.79,0000.56,-000.00,0000.34,0000.38,0000.35,22.6,00.0,0638.9,30.8
2020-04-06T01:32:00Z,00000388,01000608,0004.72,0002.24,0001.43,0001.34,0000.70,0000.54,0000.28,0000.37,0000.10,22.6,00.0,0639.0,30.8
2020-04-06T01:33:00Z,00000388,01000608,0003.68,0002.79,0001.13,0000.51,0000.31,0000.63,0000.31,0000.17,0000.15,22.6,00.0,0639.0,30.8
2020-04-06T01:34:00Z,00000388,01000608,0004.55,0003.08,0001.19,0000.36,0000.25,0000.73,0000.11,0000.27,0000.22,22.6,00.0,0639.1,30.8
2020-04-06T01:35:00Z,00000388,01000608,0005.29,0002.51,0001.04,0000.43,0000.22,0000.31,0000.28,0000.22,0000.23,22.6,00.0,0639.1,30.8
2020-04-06T01:36:00Z,00000388,01000608,0003.64,0002.46,0000.75,0000.55,0000.48,0000.40,0000.18,0000.19,0000.14,22.6,00.0,0639.1,30.8
2020-04-06T01:37:00Z,00000388,01000608,0003.94,0002.73,0001.13,0000.46,0000.61,0000.38,0000.08,0000.14,0000.07,22.6,00.0,0639.1,30.8
2020-04-06T01:38:00Z,00000388,01000608,0004.66,0003.18,0001.25,0000.25,0000.36,0000.03,0000.46,0000.39,0000.17,22.6,00.0,0639.1,30.8
2020-04-06T01:39:00Z,00000388,01000608,0005.04,0002.23,0000.76,0000.65,0000.10,0000.23,0000.13,0000.08,0000.14,22.6,00.0,0639.1,30.8
2020-04-06T01:40:00Z,00000388,01000608,0003.71,0001.81,0000.75,0000.12,0000.61,0000.68,0000.38,0000.37,0000.19,22.6,00.0,0639.1,30.8
2020-04-06T01:41:00Z,00000388,01000608,0004.73,0003.03,0000.93,0001.14,0000.37,0000.17,0000.54,0000.48,0000.33,22.5,00.0,0639.1,30.8
2020-04-06T01:42:00Z,00000388,01000608,0004.42,0003.22,0001.21,0000.67,0000.28,0000.64,0000.26,0000.25,0000.17,22.6,00.0,0639.1,30.8
2020-04-06T01:43:00Z,00000388,01000608,0005.61,0003.12,0001.39,0000.47,0000.75,0000.65,0000.34,0000.18,0000.36,22.6,00.0,0639.1,30.8
2020-04-06T01:44:00Z,00000388,01000608,0004.08,0003.18,0001.12,-000.02,0000.64,0000.29,0000.38,0000.44,0000.31,22.6,00.0,0639.0,30.8
2020-04-06T01:45:00Z,00000388,01000608,0004.73,0002.77,0001.13,0000.22,0000.42,-000.02,0000.40,0000.38,0000.22,22.6,00.0,0639.0,30.8
2020-04-06T01:46:00Z,00000388,01000608,0004.59,0002.50,0000.97,0001.40,0000.55,0000.63,0000.40,0000.27,0000.31,22.6,00.0,0639.0,30.8
2020-04-06T01:47:00Z,00000388,01000608,0004.93,0002.33,0001.26,0000.92,0000.37,0000.56,0000.36,0000.43,0000.19,22.6,00.0,0639.0,30.8
2020-04-06T01:48:00Z,00000388,01000608,0005.79,0002.95,0001.41,0000.21,0000.34,0000.43,0000.30,0000.34,0000.29,22.6,00.0,0638.9,30.8
2020-04-06T01:49:00Z,00000388,01000608,0004.89,0002.41,0001.48,0000.53,0000.38,0000.54,0000.50,0000.33,0000.26,22.7,00.0,0638.9,30.8
2020-04-06T01:50:00Z,00000388,01000608,0004.63,0002.32,0001.03,0001.23,0000.74,0000.53,0000.21,0000.17,0000.28,22.6,00.0,0639.0,30.8
2020-04-06T01:51:00Z,00000388,01000608,0004.33,0003.16,0001.31,0000.48,0000.95,0000.52,0000.19,0000.27,0000.14,22.6,00.0,0639.0,30.8
2020-04-06T01:52:00Z,00000388,01000608,0005.17,0003.50,0001.21,0001.24,0000.51,0000.88,0000.35,0000.39,0000.36,22.6,00.0,0638.9,30.8
2020-04-06T01:53:00Z,00000388,01000608,0003.81,0001.88,0000.90,0000.35,0000.49,0000.53,0000.34,0000.27,0000.11,22.6,00.0,0638.9,30.8
2020-04-06T01:54:00Z,00000388,01000608,0004.60,0002.45,0001.09,0000.94,0000.15,0000.38,0000.30,0000.35,0000.17,22.6,00.0,0638.9,30.8
2020-04-06T01:55:00Z,00000388,01000608,0004.55,0002.58,0001.07,0000.44,0000.40,0000.18,0000.44,0000.23,0000.28,22.6,00.0,0638.9,30.8
2020-04-06T01:56:00Z,00000388,01000608,0003.98,0002.30,0000.88,-000.04,0000.40,0000.20,0000.29,0000.34,0000.23,22.5,00.0,0638.9,30.8
2020-04-06T01:57:00Z,00000388,41000608,,,,,,,,,,22.6,00.0,0638.9,30.8
2020-04-06T01:58:00Z,00000388,61000608,,,,,,,,,,22.7,00.0,0638.0,30.8
2020-04-06T01:59:00Z,00000388,21000608,,,,,,,,,,22.8,00.0,0638.0,30.8
2020-04-06T02:00:00Z,00000388,21000608,,,,,,,,,,22.8,00.0,0638.0,30.8
2020-04-06T02:01:00Z,00000388,21000608,,,,,,,,,,22.9,00.0,0638.0,30.8
2020-04-06T02:02:00Z,00000388,21000608,,,,,,,,,,22.9,00.0,0638.0,30.8
2020-04-06T02:03:00Z,00000388,61000608,,,,,,,,,,22.9,00.0,0638.0,30.8
2020-04-06T02:04:00Z,00000388,41000608,0003.05,0002.15,0001.82,0001.62,0000.36,0000.48,0000.41,0000.34,0000.21,22.8,00.0,0638.8,30.8
2020-04-06T02:05:00Z,00000388,01000608,0004.76,0002.56,0001.54,0001.97,0000.62,0000.32,0000.16,0000.21,0000.18,22.7,00.0,0638.9,30.8
2020-04-06T02:06:00Z,00000388,01000608,0005.06,0003.06,0001.47,0001.34,0000.90,0000.34,0000.14,0000.29,-000.00,22.7,00.0,0638.9,30.8
2020-04-06T02:07:00Z,00000388,01000608,0004.01,0003.04,0001.68,0001.03,0000.41,0000.89,0000.52,0000.31,0000.30,22.6,00.0,0638.8,30.8
2020-04-06T02:08:00Z,00000388,01000608,0003.92,0002.52,0001.45,0000.60,0000.46,0000.34,0000.33,0000.36,0000.38,22.6,00.0,0638.8,30.8
2020-04-06T02:09:00Z,00000388,01000608,0004.71,0003.02,0001.90,0000.69,0000.52,0000.68,0000.47,0000.33,0000.11,22.6,00.0,0638.8,30.8
2020-04-06T02:10:00Z,00000388,01000608,0004.09,0002.23,0000.87,0001.12,0000.26,0000.05,0000.48,0000.48,0000.44,22.6,00.0,0638.7,30.8
2020-04-06T02:11:00Z,00000388,01000608,0004.81,0002.55,0001.33,0001.40,0000.32,0000.02,0000.66,0000.46,0000.29,22.5,00.0,0638.7,30.8
2020-04-06T02:12:00Z,00000388,01000608,0004.30,0002.91,0001.27,0000.68,0000.06,0000.39,0000.26,0000.37,0000.35,22.5,00.0,0638.6,30.8
2020-04-06T02:13:00Z,00000388,01000608,0004.02,0002.57,0001.19,0000.86,0000.30,0000.15,0000.34,0000.40,0000.18,22.5,00.0,0638.6,30.8
2020-04-06T02:14:00Z,00000388,01000608,0004.77,0002.51,0001.75,0001.52,0000.28,0000.66,0000.39,0000.30,0000.46,22.6,00.0,0638.6,30.8
2020-04-06T02:15:00Z,00000388,01000608,0004.46,0002.07,0001.78,0000.92,0000.62,-000.05,0000.30,0000.39,0000.16,22.6,00.0,0638.6,30.8
2020-04-06T02:16:00Z,00000388,01000608,0003.93,0002.21,0001.41,0001.30,0000.04,0000.07,0000.41,0000.30,0000.26,22.6,00.0,0638.6,30.8
2020-04-06T02:17:00Z,00000388,01000608,0003.56,0002.42,0002.16,0001.01,0000.40,0000.73,0000.24,0000.32,0000.24,22.6,00.0,0638.6,30.8
2020-04-06T02:18:00Z,00000388,01000608,0003.42,0002.76,0001.91,0001.12,0000.54,0000.32,0000.54,0000.28,0000.26,22.6,00.0,0638.6,30.8
2020-04-06T02:19:00Z,00000388,01000608,0005.27,0002.94,0001.17,0001.18,0000.62,0000.30,0000.21,0000.40,0000.14,22.7,00.0,0638.6,30.8
2020-04-06T02:20:00Z,00000388,01000608,0003.91,0002.87,0001.72,0001.55,0000.37,0000.20,0000.51,0000.25,0000.24,22.7,00.0,0638.6,30.8
2020-04-06T02:21:00Z,00000388,01000608,0004.77,0002.63,0001.07,0000.36,0000.35,0000.28,0000.18,0000.23,0000.28,22.7,00.0,0638.6,30.8
2020-04-06T02:22:00Z,00000388,01000608,0003.82,0002.90,0001.23,0000.51,0000.81,0000.65,0000.17,0000.13,0000.10,22.6,00.0,0638.6,30.8
2020-04-06T02:23:00Z,00000388,01000608,0003.53,0002.58,0001.36,0001.07,0000.40,0000.49,0000.19,0000.41,-000.01,22.6,00.0,0638.6,30.8
2020-04-06T02:24:00Z,00000388,01000608,0004.09,0002.78,0001.58,0001.29,0000.45,0000.11,0000.35,0000.20,0000.38,22.6,00.0,0638.6,30.8
2020-04-06T02:25:00Z,00000388,01000608,0004.72,0003.13,0001.19,0000.51,0000.78,0000.32,0000.55,0000.25,0000.22,22.6,00.0,0638.6,30.8
2020-04-06T02:26:00Z,00000388,01000608,0004.35,0002.24,0001.47,0000.89,0000.51,0000.64,0000.33,0000.42,0000.14,22.5,00.0,0638.6,30.8
2020-04-06T02:27:00Z,00000388,01000608,0004.28,0002.88,0001.65,0001.18,0000.70,0000.27,0000.24,0000.30,0000.39,22.5,00.0,0638.5,30.8
2020-04-06T02:28:00Z,00000388,01000608,0004.71,0002.69,0001.56,0000.72,0000.42,0000.24,0000.60,0000.46,0000.18,22.6,00.0,0638.5,30.8
2020-04-06T02:29:00Z,00000388,01000608,0004.99,0002.93,0001.37,0001.25,0000.28,0000.37,0000.17,0000.23,0000.20,22.6,00.0,0638.5,30.8
2020-04-06T02:30:00Z,00000388,01000608,0004.46,0003.00,0001.60,0001.75,0000.29,0000.38,0000.34,0000.24,0000.26,22.6,00.0,0638.4,30.8
2020-04-06T02:31:00Z,00000388,01000608,0004.63,0002.10,0000.98,0001.19,0000.04,0000.29,0000.45,0000.39,0000.12,22.6,00.0,0638.4,30.8
2020-04-06T02:32:00Z,00000388,01000608,0003.96,0002.78,0001.26,0001.81,0000.53,0000.25,0000.11,0000.12,0000.51,22.6,00.0,0638.4,30.8
2020-04-06T02:33:00Z,00000388,01000608,0003.92,0002.45,0001.51,0001.15,0000.46,0000.41,0000.39,0000.47,0000.13,22.7,00.0,0638.4,30.8
2020-04-06T02:34:00Z,00000388,01000608,0005.28,0002.97,0001.56,0000.46,0000.54,-000.12,0000.35,0000.32,0000.21,22.7,00.0,0638.4,30.8
2020-04-06T02:35:00Z,00000388,01000608,0004.60,0002.63,0001.99,0000.66,0000.23,0000.24,0000.23,0000.28,0000.19,22.7,00.0,0638.4,30.8
2020-04-06T02:36:00Z,00000388,01000608,0004.63,0002.76,0001.14,0001.12,0000.79,0000.34,0000.40,0000.19,0000.24,22.6,00.0,0638.4,30.8
2020-04-06T02:37:00Z,00000388,01000608,0004.19,0002.65,0001.51,0000.49,0000.34,0000.14,0000.21,0000.36,0000.15,22.6,00.0,0638.3,30.8
2020-04-06T02:38:00Z,00000388,01000608,0004.55,0002.44,0001.29,0001.66,0000.07,0000.33,0000.28,0000.17,0000.24,22.6,00.0,0638.3,30.8
2020-04-06T02:39:00Z,00000388,01000608,0004.25,0002.76,0000.73,0000.34,0000.83,0000.29,0000.16,0000.21,0000.18,22.6,00.0,0638.3,30.8
2020-04-06T02:40:00Z,00000388,01000608,0004.48,0002.77,0001.25,0001.04,0000.66,0000.51,0000.55,0000.58,0000.27,22.5,00.0,0638.2,30.8
2020-04-06T02:41:00Z,00000388,01000608,0003.72,0002.45,0001.55,0000.67,0000.42,0000.22,0000.38,0000.30,0000.34,22.5,00.0,0638.2,30.8
2020-04-06T02:42:00Z,00000388,01000608,0004.21,0002.80,0001.32,0000.82,0000.57,0000.16,0000.32,0000.25,0000.19,22.5,00.0,0638.2,30.8
2020-04-06T02:43:00Z,00000388,01000608,0005.39,0002.89,0001.30,0000.73,0000.47,0000.39,0000.50,0000.32,0000.23,22.5,00.0,0638.2,30.8
2020-04-06T02:44:00Z,00000388,01000608,0004.10,0002.97,0001.66,0000.77,0000.42,0000.71,0000.29,0000.33,0000.15,22.6,00.0,0638.2,30.8
2020-04-06T02:45:00Z,00000388,01000608,0004.74,0002.82,0001.33,0001.68,0000.71,0000.43,0000.27,0000.36,0000.25,22.6,00.0,0638.2,30.8
2020-04-06T02:46:00Z,00000388,01000608,0003.68,0002.83,0001.34,0001.28,0000.40,-000.00,0000.27,0000.23,0000.32,22.6,00.0,0638.2,30.8
2020-04-06T02:47:00Z,00000388,01000608,0005.32,0002.86,0000.86,0000.68,0000.71,0000.43,0000.21,0000.10,0000.19,22.6,00.0,0638.2,30.8
2020-04-06T02:48:00Z,00000388,01000608,0004.28,0002.89,0001.28,0000.58,0000.65,0000.23,0000.27,0000.28,0000.15,22.6,00.0,0638.2,30.8
2020-04-06T02:49:00Z,00000388,01000608,0003.31,0002.97,0001.28,0000.56,0000.09,-000.14,0000.46,0000.38,0000.09,22.6,00.0,0638.2,30.8
2020-04-06T02:50:00Z,00000388,01000608,0003.99,0003.06,0001.36,0000.75,0000.62,0000.31,0000.18,0000.28,0000.21,22.6,00.0,0638.2,30.8
2020-04-06T02:51:00Z,00000388,01000608,0005.57,0003.08,0001.19,0000.57,0000.47,-000.10,0000.30,0000.06,0000.25,22.6,00.0,0638.2,30.8
2020-04-06T02:52:00Z,00000388,01000608,0003.73,0003.23,0001.36,0001.59,0000.24,0000.52,0000.27,0000.28,0000.12,22.6,00.0,0638.2,30.8
2020-04-06T02:53:00Z,00000388,01000608,0004.27,0002.63,0001.24,0000.92,0000.69,0000.28,0000.27,0000.36,0000.29,22.5,00.0,0638.1,30.8
2020-04-06T02:54:00Z,00000388,01000608,0004.52,0003.13,0001.14,0001.00,0000.56,0000.18,0000.34,0000.17,0000.13,22.5,00.0,0638.1,30.8
2020-04-06T02:55:00Z,00000388,01000608,0004.38,0002.70,0000.95,0001.10,0000.49,0000.56,0000.47,0000.57,0000.24,22.5,00.0,0638.1,30.8
2020-04-06T02:56:00Z,00000388,01000608,0004.79,0001.76,0001.69,0000.83,0000.90,0000.22,0000.20,0000.28,0000.32,22.5,00.0,0638.2,30.8
2020-04-06T02:57:00Z,00000388,41000608,,,,,,,,,,22.5,00.0,0638.1,30.8
2020-04-06T02:58:00Z,00000388,61000608,,,,,,,,,,22.6,00.0,0637.3,30.8
2020-04-06T02:59:00Z,00000388,21000608,,,,,,,,,,22.7,00.0,0637.3,30.8
2020-04-06T03:00:00Z,00000388,21000608,,,,,,,,,,22.8,00.0,0637.3,30.8
2020-04-06T03:01:00Z,00000388,21000608,,,,,,,,,,22.8,00.0,0637.3,30.8
2020-04-06T03:02:00Z,00000388,21000608,,,,,,,,,,22.8,00.0,0637.3,30.8
2020-04-06T03:03:00Z,00000388,61000608,,,,,,,,,,22.8,00.0,0637.3,30.8
2020-04-06T03:04:00Z,00000388,41000608,0004.20,0002.20,0001.39,-000.16,0000.21,0000.38,0000.37,0000.22,0000.20,22.7,00.0,0638.1,30.8
2020-04-06T03:05:00Z,00000388,01000608,0003.59,0002.74,0001.54,0000.39,0000.86,0000.52,0000.24,0000.34,0000.23,22.7,00.0,0638.1,30.8
2020-04-06T03:06:00Z,00000388,01000608,0004.44,0001.64,0001.68,0001.35,0000.90,0000.37,0000.43,0000.42,0000.30,22.7,00.0,0638.1,30.8
2020-04-06T03:07:00Z,00000388,01000608,0004.02,0002.32,0001.53,0000.98,0000.70,0000.58,0000.34,0000.12,0000.21,22.7,00.0,0638.1,30.8
2020-04-06T03:08:00Z,00000388,01000608,0005.49,0002.77,0001.47,0001.20,0001.04,0000.95,0000.13,0000.46,0000.29,22.6,00.0,0638.1,30.8
2020-04-06T03:09:00Z,00000388,01000608,0004.50,0002.61,0001.67,0000.78,0000.88,0000.40,0000.47,0000.14,0000.14,22.6,00.0,0638.1,30.8
2020-04-06T03:10:00Z,00000388,01000608,0004.65,0002.68,0001.56,-000.13,0000.77,0000.62,0000.49,0000.46,0000.28,22.5,00.0,0638.0,30.8